Year,Month,Day,Hour,Minute,Value (Times are PST for windspeed in km/hr)
2020,10,14,00,00,11.30
2020,10,14,00,01,12.70
2020,10,14,00,02,10.10
2020,10,14,00,03,13.30
2020,10,14,00,04,9.70
2020,10,14,00,05,4.10
2020,10,14,00,06,6.30
2020,10,14,00,07,9.00
2020,10,14,00,08,5.80
2020,10,14,00,09,5.60
2020,10,14,00,10,4.20
2020,10,14,00,11,10.40
2020,10,14,00,12,4.90
2020,10,14,00,13,7.30
2020,10,14,00,14,3.30
2020,10,14,00,15,5.80
2020,10,14,00,16,5.80
2020,10,14,00,17,1.50
2020,10,14,00,18,4.40
2020,10,14,00,19,3.80
2020,10,14,00,20,9.40
2020,10,14,00,21,3.60
2020,10,14,00,22,7.10
2020,10,14,00,23,7.70
2020,10,14,00,24,13.20
2020,10,14,00,25,9.20
2020,10,14,00,26,5.50
2020,10,14,00,27,7.90
2020,10,14,00,28,2.60
2020,10,14,00,29,10.20
2020,10,14,00,30,3.80
2020,10,14,00,31,10.60
2020,10,14,00,32,7.80
2020,10,14,00,33,7.80
2020,10,14,00,34,6.40
2020,10,14,00,35,3.80
2020,10,14,00,36,2.10
2020,10,14,00,37,3.40
2020,10,14,00,38,5.70
2020,10,14,00,39,8.00
2020,10,14,00,40,4.50
2020,10,14,00,41,3.40
2020,10,14,00,42,4.80
2020,10,14,00,43,3.50
2020,10,14,00,44,7.70
2020,10,14,00,45,2.90
2020,10,14,00,46,4.10
2020,10,14,00,47,1.40
2020,10,14,00,48,2.70
2020,10,14,00,49,2.10
2020,10,14,00,50,0.80
2020,10,14,00,51,4.10
2020,10,14,00,52,5.90
2020,10,14,00,53,4.40
2020,10,14,00,54,5.10
2020,10,14,00,55,12.40
2020,10,14,00,56,0.30
2020,10,14,00,57,0.40
2020,10,14,00,58,5.10
2020,10,14,00,59,6.90
2020,10,14,01,00,4.60
2020,10,14,01,01,5.80
2020,10,14,01,02,8.70
2020,10,14,01,03,1.90
2020,10,14,01,04,0.20
2020,10,14,01,05,6.30
2020,10,14,01,06,1.70
2020,10,14,01,07,0.50
2020,10,14,01,08,0.20
2020,10,14,01,09,2.70
2020,10,14,01,10,3.10
2020,10,14,01,11,5.50
2020,10,14,01,12,3.00
2020,10,14,01,13,6.80
2020,10,14,01,14,9.60
2020,10,14,01,15,6.80
2020,10,14,01,16,5.00
2020,10,14,01,17,3.60
2020,10,14,01,18,5.40
2020,10,14,01,19,12.30
2020,10,14,01,20,5.70
2020,10,14,01,21,12.20
2020,10,14,01,22,7.50
2020,10,14,01,23,2.30
2020,10,14,01,24,4.60
2020,10,14,01,25,1.40
2020,10,14,01,26,1.40
2020,10,14,01,27,0.60
2020,10,14,01,28,0.30
2020,10,14,01,29,6.30
2020,10,14,01,30,8.30
2020,10,14,01,31,14.30
2020,10,14,01,32,10.50
2020,10,14,01,33,4.20
2020,10,14,01,34,5.00
2020,10,14,01,35,0.20
2020,10,14,01,36,9.70
2020,10,14,01,37,8.90
2020,10,14,01,38,4.30
2020,10,14,01,39,2.90
2020,10,14,01,40,3.00
2020,10,14,01,41,0.10
2020,10,14,01,42,9.30
2020,10,14,01,43,1.50
2020,10,14,01,44,0.20
2020,10,14,01,45,0.00
2020,10,14,01,46,0.00
2020,10,14,01,47,1.80
2020,10,14,01,48,0.30
2020,10,14,01,49,2.90
2020,10,14,01,50,0.60
2020,10,14,01,51,0.10
2020,10,14,01,52,0.20
2020,10,14,01,53,0.00
2020,10,14,01,54,0.00
2020,10,14,01,55,3.70
2020,10,14,01,56,0.90
2020,10,14,01,57,0.30
2020,10,14,01,58,0.00
2020,10,14,01,59,0.00
2020,10,14,02,00,0.00
2020,10,14,02,01,0.80
2020,10,14,02,02,0.20
2020,10,14,02,03,0.00
2020,10,14,02,04,0.00
2020,10,14,02,05,0.70
2020,10,14,02,06,0.00
2020,10,14,02,07,0.00
2020,10,14,02,08,0.00
2020,10,14,02,09,5.30
2020,10,14,02,10,4.70
2020,10,14,02,11,3.70
2020,10,14,02,12,3.30
2020,10,14,02,13,1.60
2020,10,14,02,14,6.10
2020,10,14,02,15,2.50
2020,10,14,02,16,2.30
2020,10,14,02,17,1.90
2020,10,14,02,18,0.00
2020,10,14,02,19,0.00
2020,10,14,02,20,0.00
2020,10,14,02,21,0.00
2020,10,14,02,22,1.20
2020,10,14,02,23,3.40
2020,10,14,02,24,2.60
2020,10,14,02,25,2.60
2020,10,14,02,26,0.30
2020,10,14,02,27,1.90
2020,10,14,02,28,1.30
2020,10,14,02,29,3.60
2020,10,14,02,30,2.10
2020,10,14,02,31,3.60
2020,10,14,02,32,0.70
2020,10,14,02,33,1.60
2020,10,14,02,34,3.30
2020,10,14,02,35,1.50
2020,10,14,02,36,3.60
2020,10,14,02,37,3.60
2020,10,14,02,38,6.30
2020,10,14,02,39,0.50
2020,10,14,02,40,0.00
2020,10,14,02,41,0.00
2020,10,14,02,42,1.50
2020,10,14,02,43,2.40
2020,10,14,02,44,2.80
2020,10,14,02,45,0.00
2020,10,14,02,46,1.60
2020,10,14,02,47,4.40
2020,10,14,02,48,0.40
2020,10,14,02,49,4.30
2020,10,14,02,50,4.20
2020,10,14,02,51,0.00
2020,10,14,02,52,0.00
2020,10,14,02,53,1.70
2020,10,14,02,54,4.60
2020,10,14,02,55,9.20
2020,10,14,02,56,7.60
2020,10,14,02,57,2.70
2020,10,14,02,58,0.30
2020,10,14,02,59,0.00
2020,10,14,03,00,0.00
2020,10,14,03,01,1.60
2020,10,14,03,02,1.90
2020,10,14,03,03,1.40
2020,10,14,03,04,1.50
2020,10,14,03,05,9.20
2020,10,14,03,06,5.20
2020,10,14,03,07,10.60
2020,10,14,03,08,6.40
2020,10,14,03,09,2.30
2020,10,14,03,10,9.30
2020,10,14,03,11,4.90
2020,10,14,03,12,2.00
2020,10,14,03,13,0.30
2020,10,14,03,14,4.80
2020,10,14,03,15,9.00
2020,10,14,03,16,8.70
2020,10,14,03,17,5.60
2020,10,14,03,18,1.60
2020,10,14,03,19,3.50
2020,10,14,03,20,0.00
2020,10,14,03,21,3.30
2020,10,14,03,22,7.70
2020,10,14,03,23,1.60
2020,10,14,03,24,0.80
2020,10,14,03,25,0.00
2020,10,14,03,26,1.40
2020,10,14,03,27,2.30
2020,10,14,03,28,3.10
2020,10,14,03,29,2.00
2020,10,14,03,30,4.70
2020,10,14,03,31,0.90
2020,10,14,03,32,1.20
2020,10,14,03,33,6.10
2020,10,14,03,34,9.60
2020,10,14,03,35,2.80
2020,10,14,03,36,1.80
2020,10,14,03,37,0.00
2020,10,14,03,38,1.60
2020,10,14,03,39,2.40
2020,10,14,03,40,2.00
2020,10,14,03,41,0.10
2020,10,14,03,42,0.00
2020,10,14,03,43,0.30
2020,10,14,03,44,0.70
2020,10,14,03,45,0.30
2020,10,14,03,46,0.50
2020,10,14,03,47,1.80
2020,10,14,03,48,4.20
2020,10,14,03,49,4.30
2020,10,14,03,50,4.50
2020,10,14,03,51,3.20
2020,10,14,03,52,5.30
2020,10,14,03,53,3.80
2020,10,14,03,54,2.50
2020,10,14,03,55,0.40
2020,10,14,03,56,0.40
2020,10,14,03,57,0.10
2020,10,14,03,58,1.00
2020,10,14,03,59,0.00
2020,10,14,04,00,0.00
2020,10,14,04,01,0.00
2020,10,14,04,02,0.00
2020,10,14,04,03,0.00
2020,10,14,04,04,0.90
2020,10,14,04,05,0.00
2020,10,14,04,06,0.00
2020,10,14,04,07,1.50
2020,10,14,04,08,2.70
2020,10,14,04,09,0.00
2020,10,14,04,10,0.00
2020,10,14,04,11,3.80
2020,10,14,04,12,0.80
2020,10,14,04,13,1.10
2020,10,14,04,14,0.00
2020,10,14,04,15,0.10
2020,10,14,04,16,0.00
2020,10,14,04,17,4.10
2020,10,14,04,18,8.10
2020,10,14,04,19,4.00
2020,10,14,04,20,2.70
2020,10,14,04,21,2.40
2020,10,14,04,22,5.30
2020,10,14,04,23,6.30
2020,10,14,04,24,7.10
2020,10,14,04,25,5.60
2020,10,14,04,26,3.40
2020,10,14,04,27,1.10
2020,10,14,04,28,0.00
2020,10,14,04,29,0.80
2020,10,14,04,30,2.50
2020,10,14,04,31,3.90
2020,10,14,04,32,0.20
2020,10,14,04,33,0.00
2020,10,14,04,34,0.00
2020,10,14,04,35,8.10
2020,10,14,04,36,5.00
2020,10,14,04,37,0.40
2020,10,14,04,38,0.00
2020,10,14,04,39,0.00
2020,10,14,04,40,0.00
2020,10,14,04,41,0.00
2020,10,14,04,42,1.00
2020,10,14,04,43,0.70
2020,10,14,04,44,5.20
2020,10,14,04,45,4.40
2020,10,14,04,46,3.10
2020,10,14,04,47,0.50
2020,10,14,04,48,0.00
2020,10,14,04,49,0.00
2020,10,14,04,50,0.00
2020,10,14,04,51,0.00
2020,10,14,04,52,0.40
2020,10,14,04,53,4.70
2020,10,14,04,54,5.80
2020,10,14,04,55,7.20
2020,10,14,04,56,5.30
2020,10,14,04,57,1.70
2020,10,14,04,58,5.40
2020,10,14,04,59,6.30
2020,10,14,05,00,1.40
2020,10,14,05,01,0.30
2020,10,14,05,02,0.00
2020,10,14,05,03,0.00
2020,10,14,05,04,0.00
2020,10,14,05,05,0.10
2020,10,14,05,06,0.00
2020,10,14,05,07,0.00
2020,10,14,05,08,0.00
2020,10,14,05,09,0.00
2020,10,14,05,10,0.00
2020,10,14,05,11,1.30
2020,10,14,05,12,0.30
2020,10,14,05,13,0.00
2020,10,14,05,14,0.00
2020,10,14,05,15,0.00
2020,10,14,05,16,0.00
2020,10,14,05,17,0.40
2020,10,14,05,18,0.10
2020,10,14,05,19,0.00
2020,10,14,05,20,0.00
2020,10,14,05,21,0.00
2020,10,14,05,22,0.00
2020,10,14,05,23,0.00
2020,10,14,05,24,0.00
2020,10,14,05,25,0.00
2020,10,14,05,26,0.00
2020,10,14,05,27,0.00
2020,10,14,05,28,0.00
2020,10,14,05,29,0.00
2020,10,14,05,30,0.00
2020,10,14,05,31,0.00
2020,10,14,05,32,0.00
2020,10,14,05,33,0.00
2020,10,14,05,34,0.00
2020,10,14,05,35,0.00
2020,10,14,05,36,0.00
2020,10,14,05,37,0.00
2020,10,14,05,38,0.00
2020,10,14,05,39,0.00
2020,10,14,05,40,0.00
2020,10,14,05,41,0.00
2020,10,14,05,42,0.00
2020,10,14,05,43,0.00
2020,10,14,05,44,0.00
2020,10,14,05,45,1.00
2020,10,14,05,46,4.00
2020,10,14,05,47,1.30
2020,10,14,05,48,0.00
2020,10,14,05,49,0.30
2020,10,14,05,50,1.10
2020,10,14,05,51,0.60
2020,10,14,05,52,1.80
2020,10,14,05,53,5.30
2020,10,14,05,54,4.40
2020,10,14,05,55,6.70
2020,10,14,05,56,4.30
2020,10,14,05,57,4.40
2020,10,14,05,58,5.80
2020,10,14,05,59,4.20
2020,10,14,06,00,5.30
2020,10,14,06,01,7.20
2020,10,14,06,02,7.60
2020,10,14,06,03,8.30
2020,10,14,06,04,7.30
2020,10,14,06,05,6.10
2020,10,14,06,06,7.50
2020,10,14,06,07,6.30
2020,10,14,06,08,4.20
2020,10,14,06,09,4.80
2020,10,14,06,10,6.60
2020,10,14,06,11,6.20
2020,10,14,06,12,5.00
2020,10,14,06,13,6.00
2020,10,14,06,14,6.40
2020,10,14,06,15,7.00
2020,10,14,06,16,5.80
2020,10,14,06,17,6.90
2020,10,14,06,18,7.50
2020,10,14,06,19,7.00
2020,10,14,06,20,7.10
2020,10,14,06,21,7.10
2020,10,14,06,22,5.60
2020,10,14,06,23,6.50
2020,10,14,06,24,5.70
2020,10,14,06,25,7.70
2020,10,14,06,26,5.90
2020,10,14,06,27,9.20
2020,10,14,06,28,6.40
2020,10,14,06,29,8.30
2020,10,14,06,30,6.40
2020,10,14,06,31,8.30
2020,10,14,06,32,7.40
2020,10,14,06,33,8.50
2020,10,14,06,34,4.10
2020,10,14,06,35,8.70
2020,10,14,06,36,6.70
2020,10,14,06,37,6.30
2020,10,14,06,38,7.20
2020,10,14,06,39,4.20
2020,10,14,06,40,3.80
2020,10,14,06,41,6.90
2020,10,14,06,42,6.40
2020,10,14,06,43,5.70
2020,10,14,06,44,6.40
2020,10,14,06,45,6.40
2020,10,14,06,46,6.10
2020,10,14,06,47,4.60
2020,10,14,06,48,4.10
2020,10,14,06,49,2.30
2020,10,14,06,50,6.00
2020,10,14,06,51,8.70
2020,10,14,06,52,6.10
2020,10,14,06,53,2.60
2020,10,14,06,54,0.00
2020,10,14,06,55,1.00
2020,10,14,06,56,3.80
2020,10,14,06,57,2.50
2020,10,14,06,58,2.20
2020,10,14,06,59,1.90
2020,10,14,07,00,2.50
2020,10,14,07,01,6.30
2020,10,14,07,02,1.20
2020,10,14,07,03,2.40
2020,10,14,07,04,3.50
2020,10,14,07,05,1.80
2020,10,14,07,06,0.60
2020,10,14,07,07,2.00
2020,10,14,07,08,0.80
2020,10,14,07,09,2.30
2020,10,14,07,10,3.20
2020,10,14,07,11,2.80
2020,10,14,07,12,2.90
2020,10,14,07,13,2.10
2020,10,14,07,14,2.10
2020,10,14,07,15,2.00
2020,10,14,07,16,2.50
2020,10,14,07,17,0.40
2020,10,14,07,18,1.10
2020,10,14,07,19,1.80
2020,10,14,07,20,0.30
2020,10,14,07,21,0.00
2020,10,14,07,22,0.00
2020,10,14,07,23,0.00
2020,10,14,07,24,0.00
2020,10,14,07,25,1.00
2020,10,14,07,26,2.20
2020,10,14,07,27,1.10
2020,10,14,07,28,2.70
2020,10,14,07,29,3.80
2020,10,14,07,30,3.10
2020,10,14,07,31,4.10
2020,10,14,07,32,4.60
2020,10,14,07,33,4.60
2020,10,14,07,34,6.20
2020,10,14,07,35,5.30
2020,10,14,07,36,3.20
2020,10,14,07,37,4.30
2020,10,14,07,38,5.30
2020,10,14,07,39,3.30
2020,10,14,07,40,2.20
2020,10,14,07,41,4.30
2020,10,14,07,42,4.00
2020,10,14,07,43,1.80
2020,10,14,07,44,5.90
2020,10,14,07,45,1.30
2020,10,14,07,46,0.10
2020,10,14,07,47,0.00
2020,10,14,07,48,0.00
2020,10,14,07,49,2.40
2020,10,14,07,50,4.70
2020,10,14,07,51,2.40
2020,10,14,07,52,2.60
2020,10,14,07,53,0.00
2020,10,14,07,54,0.00
2020,10,14,07,55,0.00
2020,10,14,07,56,0.00
2020,10,14,07,57,0.00
2020,10,14,07,58,0.00
2020,10,14,07,59,0.00
2020,10,14,08,00,0.00
2020,10,14,08,01,0.00
2020,10,14,08,02,0.00
2020,10,14,08,03,0.00
2020,10,14,08,04,0.00
2020,10,14,08,05,0.00
2020,10,14,08,06,0.00
2020,10,14,08,07,0.00
2020,10,14,08,08,0.00
2020,10,14,08,09,0.00
2020,10,14,08,10,0.00
2020,10,14,08,11,0.00
2020,10,14,08,12,0.00
2020,10,14,08,13,0.10
2020,10,14,08,14,0.00
2020,10,14,08,15,0.00
2020,10,14,08,16,0.00
2020,10,14,08,17,0.00
2020,10,14,08,18,0.00
2020,10,14,08,19,0.00
2020,10,14,08,20,0.00
2020,10,14,08,21,0.30
2020,10,14,08,22,0.00
2020,10,14,08,23,0.00
2020,10,14,08,24,0.00
2020,10,14,08,25,1.10
2020,10,14,08,26,4.10
2020,10,14,08,27,0.90
2020,10,14,08,28,1.50
2020,10,14,08,29,3.10
2020,10,14,08,30,0.80
2020,10,14,08,31,0.00
2020,10,14,08,32,0.00
2020,10,14,08,33,0.00
2020,10,14,08,34,0.00
2020,10,14,08,35,0.00
2020,10,14,08,36,0.00
2020,10,14,08,37,0.00
2020,10,14,08,38,0.80
2020,10,14,08,39,3.20
2020,10,14,08,40,4.40
2020,10,14,08,41,5.90
2020,10,14,08,42,4.60
2020,10,14,08,43,4.10
2020,10,14,08,44,1.70
2020,10,14,08,45,4.20
2020,10,14,08,46,6.20
2020,10,14,08,47,5.80
2020,10,14,08,48,9.80
2020,10,14,08,49,5.70
2020,10,14,08,50,9.00
2020,10,14,08,51,8.60
2020,10,14,08,52,9.00
2020,10,14,08,53,10.30
2020,10,14,08,54,8.60
2020,10,14,08,55,8.00
2020,10,14,08,56,9.20
2020,10,14,08,57,7.70
2020,10,14,08,58,8.00
2020,10,14,08,59,7.50
2020,10,14,09,00,8.70
2020,10,14,09,01,11.80
2020,10,14,09,02,11.60
2020,10,14,09,03,8.80
2020,10,14,09,04,6.40
2020,10,14,09,05,8.30
2020,10,14,09,06,8.80
2020,10,14,09,07,7.20
2020,10,14,09,08,9.10
2020,10,14,09,09,11.50
2020,10,14,09,10,9.30
2020,10,14,09,11,7.30
2020,10,14,09,12,6.90
2020,10,14,09,13,8.20
2020,10,14,09,14,13.00
2020,10,14,09,15,11.40
2020,10,14,09,16,9.00
2020,10,14,09,17,11.50
2020,10,14,09,18,8.90
2020,10,14,09,19,10.40
2020,10,14,09,20,7.10
2020,10,14,09,21,5.20
2020,10,14,09,22,4.20
2020,10,14,09,23,5.80
2020,10,14,09,24,2.50
2020,10,14,09,25,6.40
2020,10,14,09,26,2.50
2020,10,14,09,27,6.60
2020,10,14,09,28,4.80
2020,10,14,09,29,2.10
2020,10,14,09,30,1.40
2020,10,14,09,31,3.90
2020,10,14,09,32,0.40
2020,10,14,09,33,7.50
2020,10,14,09,34,2.60
2020,10,14,09,35,0.80
2020,10,14,09,36,1.10
2020,10,14,09,37,10.50
2020,10,14,09,38,6.90
2020,10,14,09,39,7.70
2020,10,14,09,40,6.90
2020,10,14,09,41,3.60
2020,10,14,09,42,7.20
2020,10,14,09,43,5.40
2020,10,14,09,44,1.80
2020,10,14,09,45,2.10
2020,10,14,09,46,0.00
2020,10,14,09,47,2.90
2020,10,14,09,48,5.40
2020,10,14,09,49,5.90
2020,10,14,09,50,3.20
2020,10,14,09,51,5.30
2020,10,14,09,52,6.20
2020,10,14,09,53,0.00
2020,10,14,09,54,1.40
2020,10,14,09,55,0.70
2020,10,14,09,56,2.10
2020,10,14,09,57,6.40
2020,10,14,09,58,4.50
2020,10,14,09,59,4.30
2020,10,14,10,00,6.10
2020,10,14,10,01,6.80
2020,10,14,10,02,5.30
2020,10,14,10,03,7.00
2020,10,14,10,04,4.80
2020,10,14,10,05,3.00
2020,10,14,10,06,1.20
2020,10,14,10,07,10.50
2020,10,14,10,08,5.60
2020,10,14,10,09,12.10
2020,10,14,10,10,18.90
2020,10,14,10,11,7.10
2020,10,14,10,12,4.70
2020,10,14,10,13,17.10
2020,10,14,10,14,15.80
2020,10,14,10,15,10.30
2020,10,14,10,16,15.10
2020,10,14,10,17,3.70
2020,10,14,10,18,12.20
2020,10,14,10,19,11.60
2020,10,14,10,20,11.50
2020,10,14,10,21,7.10
2020,10,14,10,22,13.80
2020,10,14,10,23,7.50
2020,10,14,10,24,8.50
2020,10,14,10,25,2.80
2020,10,14,10,26,5.50
2020,10,14,10,27,3.20
2020,10,14,10,28,11.50
2020,10,14,10,29,15.90
2020,10,14,10,30,9.90
2020,10,14,10,31,6.80
2020,10,14,10,32,4.20
2020,10,14,10,33,6.30
2020,10,14,10,34,10.40
2020,10,14,10,35,12.70
2020,10,14,10,36,17.90
2020,10,14,10,37,14.10
2020,10,14,10,38,14.80
2020,10,14,10,39,13.30
2020,10,14,10,40,15.40
2020,10,14,10,41,0.60
2020,10,14,10,42,6.60
2020,10,14,10,43,11.70
2020,10,14,10,44,1.50
2020,10,14,10,45,6.90
2020,10,14,10,46,17.80
2020,10,14,10,47,14.40
2020,10,14,10,48,8.40
2020,10,14,10,49,6.00
2020,10,14,10,50,9.20
2020,10,14,10,51,13.30
2020,10,14,10,52,4.10
2020,10,14,10,53,5.30
2020,10,14,10,54,6.30
2020,10,14,10,55,5.90
2020,10,14,10,56,10.70
2020,10,14,10,57,4.20
2020,10,14,10,58,11.20
2020,10,14,10,59,7.50
2020,10,14,11,00,7.40
2020,10,14,11,01,3.00
2020,10,14,11,02,3.80
2020,10,14,11,03,4.20
2020,10,14,11,04,13.10
2020,10,14,11,05,5.60
2020,10,14,11,06,5.40
2020,10,14,11,07,1.50
2020,10,14,11,08,5.90
2020,10,14,11,09,7.60
2020,10,14,11,10,3.20
2020,10,14,11,11,1.70
2020,10,14,11,12,6.70
2020,10,14,11,13,9.20
2020,10,14,11,14,1.50
2020,10,14,11,15,2.10
2020,10,14,11,16,4.30
2020,10,14,11,17,0.00
2020,10,14,11,18,1.40
2020,10,14,11,19,2.80
2020,10,14,11,20,3.50
2020,10,14,11,21,1.10
2020,10,14,11,22,1.90
2020,10,14,11,23,0.40
2020,10,14,11,24,3.10
2020,10,14,11,25,1.80
2020,10,14,11,26,1.00
2020,10,14,11,27,2.70
2020,10,14,11,28,3.40
2020,10,14,11,29,2.80
2020,10,14,11,30,1.00
2020,10,14,11,31,0.30
2020,10,14,11,32,3.40
2020,10,14,11,33,3.00
2020,10,14,11,34,4.60
2020,10,14,11,35,7.40
2020,10,14,11,36,5.10
2020,10,14,11,37,1.90
2020,10,14,11,38,11.90
2020,10,14,11,39,10.90
2020,10,14,11,40,10.00
2020,10,14,11,41,12.50
2020,10,14,11,42,2.90
2020,10,14,11,43,9.70
2020,10,14,11,44,8.20
2020,10,14,11,45,3.50
2020,10,14,11,46,4.40
2020,10,14,11,47,3.80
2020,10,14,11,48,7.00
2020,10,14,11,49,9.10
2020,10,14,11,50,8.30
2020,10,14,11,51,1.30
2020,10,14,11,52,8.80
2020,10,14,11,53,8.10
2020,10,14,11,54,4.00
2020,10,14,11,55,10.20
2020,10,14,11,56,13.30
2020,10,14,11,57,8.70
2020,10,14,11,58,6.40
2020,10,14,11,59,9.50
2020,10,14,12,00,5.40
2020,10,14,12,01,7.70
2020,10,14,12,02,6.00
2020,10,14,12,03,2.60
2020,10,14,12,04,3.00
2020,10,14,12,05,3.30
2020,10,14,12,06,2.50
2020,10,14,12,07,8.10
2020,10,14,12,08,14.50
2020,10,14,12,09,8.20
2020,10,14,12,10,2.90
2020,10,14,12,11,0.30
2020,10,14,12,12,7.50
2020,10,14,12,13,3.60
2020,10,14,12,14,7.00
2020,10,14,12,15,2.20
2020,10,14,12,16,6.90
2020,10,14,12,17,8.30
2020,10,14,12,18,6.40
2020,10,14,12,19,8.30
2020,10,14,12,20,2.20
2020,10,14,12,21,4.50
2020,10,14,12,22,12.30
2020,10,14,12,23,7.00
2020,10,14,12,24,3.30
2020,10,14,12,25,10.50
2020,10,14,12,26,4.90
2020,10,14,12,27,7.70
2020,10,14,12,28,7.30
2020,10,14,12,29,4.10
2020,10,14,12,30,1.20
2020,10,14,12,31,2.50
2020,10,14,12,32,5.40
2020,10,14,12,33,9.70
2020,10,14,12,34,3.10
2020,10,14,12,35,9.10
2020,10,14,12,36,6.10
2020,10,14,12,37,9.20
2020,10,14,12,38,9.50
2020,10,14,12,39,4.10
2020,10,14,12,40,3.00
2020,10,14,12,41,13.60
2020,10,14,12,42,11.40
2020,10,14,12,43,2.60
2020,10,14,12,44,4.30
2020,10,14,12,45,5.80
2020,10,14,12,46,7.20
2020,10,14,12,47,8.20
2020,10,14,12,48,8.60
2020,10,14,12,49,10.90
2020,10,14,12,50,12.40
2020,10,14,12,51,11.20
2020,10,14,12,52,10.50
2020,10,14,12,53,3.60
2020,10,14,12,54,8.60
2020,10,14,12,55,5.10
2020,10,14,12,56,5.30
2020,10,14,12,57,13.60
2020,10,14,12,58,11.70
2020,10,14,12,59,6.90
2020,10,14,13,00,5.40
2020,10,14,13,01,12.50
2020,10,14,13,02,16.10
2020,10,14,13,03,14.60
2020,10,14,13,04,6.00
2020,10,14,13,05,4.30
2020,10,14,13,06,8.60
2020,10,14,13,07,7.90
2020,10,14,13,08,7.90
2020,10,14,13,09,9.10
2020,10,14,13,10,3.90
2020,10,14,13,11,2.70
2020,10,14,13,12,14.00
2020,10,14,13,13,7.40
2020,10,14,13,14,9.90
2020,10,14,13,15,9.20
2020,10,14,13,16,8.30
2020,10,14,13,17,4.20
2020,10,14,13,18,3.90
2020,10,14,13,19,7.20
2020,10,14,13,20,6.40
2020,10,14,13,21,6.70
2020,10,14,13,22,12.60
2020,10,14,13,23,4.90
2020,10,14,13,24,14.10
2020,10,14,13,25,11.80
2020,10,14,13,26,6.30
2020,10,14,13,27,5.50
2020,10,14,13,28,12.30
2020,10,14,13,29,3.10
2020,10,14,13,30,10.90
2020,10,14,13,31,7.30
2020,10,14,13,32,10.20
2020,10,14,13,33,8.50
2020,10,14,13,34,7.50
2020,10,14,13,35,13.90
2020,10,14,13,36,7.40
2020,10,14,13,37,11.40
2020,10,14,13,38,5.30
2020,10,14,13,39,7.60
2020,10,14,13,40,6.10
2020,10,14,13,41,8.20
2020,10,14,13,42,2.00
2020,10,14,13,43,5.20
2020,10,14,13,44,7.80
2020,10,14,13,45,5.50
2020,10,14,13,46,10.70
2020,10,14,13,47,10.70
2020,10,14,13,48,13.20
2020,10,14,13,49,11.80
2020,10,14,13,50,19.20
2020,10,14,13,51,9.00
2020,10,14,13,52,11.70
2020,10,14,13,53,12.20
2020,10,14,13,54,15.20
2020,10,14,13,55,4.50
2020,10,14,13,56,9.80
2020,10,14,13,57,18.60
2020,10,14,13,58,7.60
2020,10,14,13,59,4.20
2020,10,14,14,00,9.30
2020,10,14,14,01,11.00
2020,10,14,14,02,5.30
2020,10,14,14,03,6.90
2020,10,14,14,04,15.10
2020,10,14,14,05,12.40
2020,10,14,14,06,3.00
2020,10,14,14,07,4.00
2020,10,14,14,08,3.70
2020,10,14,14,09,6.70
2020,10,14,14,10,9.80
2020,10,14,14,11,3.40
2020,10,14,14,12,3.80
2020,10,14,14,13,4.50
2020,10,14,14,14,1.00
2020,10,14,14,15,5.10
2020,10,14,14,16,5.30
2020,10,14,14,17,6.90
2020,10,14,14,18,3.60
2020,10,14,14,19,6.40
2020,10,14,14,20,2.30
2020,10,14,14,21,2.20
2020,10,14,14,22,1.50
2020,10,14,14,23,8.30
2020,10,14,14,24,16.30
2020,10,14,14,25,2.60
2020,10,14,14,26,3.20
2020,10,14,14,27,3.10
2020,10,14,14,28,3.70
2020,10,14,14,29,11.90
2020,10,14,14,30,15.80
2020,10,14,14,31,10.50
2020,10,14,14,32,14.40
2020,10,14,14,33,11.00
2020,10,14,14,34,13.80
2020,10,14,14,35,7.10
2020,10,14,14,36,9.10
2020,10,14,14,37,10.00
2020,10,14,14,38,7.10
2020,10,14,14,39,8.60
2020,10,14,14,40,5.60
2020,10,14,14,41,4.20
2020,10,14,14,42,4.00
2020,10,14,14,43,8.50
2020,10,14,14,44,9.40
2020,10,14,14,45,13.30
2020,10,14,14,46,12.50
2020,10,14,14,47,3.40
2020,10,14,14,48,6.50
2020,10,14,14,49,3.10
2020,10,14,14,50,5.20
2020,10,14,14,51,4.50
2020,10,14,14,52,4.60
2020,10,14,14,53,3.10
2020,10,14,14,54,3.80
2020,10,14,14,55,8.30
2020,10,14,14,56,11.30
2020,10,14,14,57,7.00
2020,10,14,14,58,6.40
2020,10,14,14,59,8.40
2020,10,14,15,00,3.40
2020,10,14,15,01,6.50
2020,10,14,15,02,3.60
2020,10,14,15,03,7.60
2020,10,14,15,04,4.80
2020,10,14,15,05,6.50
2020,10,14,15,06,9.90
2020,10,14,15,07,13.20
2020,10,14,15,08,8.70
2020,10,14,15,09,6.60
2020,10,14,15,10,10.00
2020,10,14,15,11,7.80
2020,10,14,15,12,2.50
2020,10,14,15,13,3.90
2020,10,14,15,14,10.80
2020,10,14,15,15,19.80
2020,10,14,15,16,19.50
2020,10,14,15,17,8.70
2020,10,14,15,18,8.50
2020,10,14,15,19,10.90
2020,10,14,15,20,9.30
2020,10,14,15,21,14.70
2020,10,14,15,22,15.00
2020,10,14,15,23,19.10
2020,10,14,15,24,12.80
2020,10,14,15,25,5.90
2020,10,14,15,26,17.70
2020,10,14,15,27,17.30
2020,10,14,15,28,18.80
2020,10,14,15,29,20.40
2020,10,14,15,30,12.90
2020,10,14,15,31,13.30
2020,10,14,15,32,14.10
2020,10,14,15,33,11.30
2020,10,14,15,34,11.10
2020,10,14,15,35,13.50
2020,10,14,15,36,9.00
2020,10,14,15,37,12.80
2020,10,14,15,38,13.90
2020,10,14,15,39,12.80
2020,10,14,15,40,8.10
2020,10,14,15,41,10.20
2020,10,14,15,42,13.60
2020,10,14,15,43,23.50
2020,10,14,15,44,8.10
2020,10,14,15,45,9.50
2020,10,14,15,46,8.70
2020,10,14,15,47,8.60
2020,10,14,15,48,8.00
2020,10,14,15,49,12.90
2020,10,14,15,50,10.20
2020,10,14,15,51,18.10
2020,10,14,15,52,7.80
2020,10,14,15,53,7.50
2020,10,14,15,54,14.00
2020,10,14,15,55,16.80
2020,10,14,15,56,10.00
2020,10,14,15,57,9.40
2020,10,14,15,58,8.50
2020,10,14,15,59,15.90
2020,10,14,16,00,5.90
2020,10,14,16,01,11.20
2020,10,14,16,02,6.10
2020,10,14,16,03,8.00
2020,10,14,16,04,8.80
2020,10,14,16,05,6.90
2020,10,14,16,06,13.60
2020,10,14,16,07,8.20
2020,10,14,16,08,6.50
2020,10,14,16,09,9.10
2020,10,14,16,10,8.50
2020,10,14,16,11,4.90
2020,10,14,16,12,10.30
2020,10,14,16,13,7.60
2020,10,14,16,14,14.70
2020,10,14,16,15,11.20
2020,10,14,16,16,11.40
2020,10,14,16,17,9.20
2020,10,14,16,18,7.60
2020,10,14,16,19,16.60
2020,10,14,16,20,17.30
2020,10,14,16,21,12.20
2020,10,14,16,22,8.00
2020,10,14,16,23,15.20
2020,10,14,16,24,7.60
2020,10,14,16,25,13.50
2020,10,14,16,26,14.70
2020,10,14,16,27,15.40
2020,10,14,16,28,8.20
2020,10,14,16,29,8.60
2020,10,14,16,30,13.50
2020,10,14,16,31,9.20
2020,10,14,16,32,10.30
2020,10,14,16,33,11.00
2020,10,14,16,34,4.50
2020,10,14,16,35,7.50
2020,10,14,16,36,2.20
2020,10,14,16,37,8.10
2020,10,14,16,38,8.70
2020,10,14,16,39,4.20
2020,10,14,16,40,10.30
2020,10,14,16,41,6.50
2020,10,14,16,42,4.10
2020,10,14,16,43,6.00
2020,10,14,16,44,5.60
2020,10,14,16,45,7.90
2020,10,14,16,46,5.20
2020,10,14,16,47,3.60
2020,10,14,16,48,3.80
2020,10,14,16,49,8.00
2020,10,14,16,50,6.00
2020,10,14,16,51,14.40
2020,10,14,16,52,11.80
2020,10,14,16,53,5.00
2020,10,14,16,54,7.20
2020,10,14,16,55,10.70
2020,10,14,16,56,12.10
2020,10,14,16,57,13.00
2020,10,14,16,58,9.90
2020,10,14,16,59,15.50
2020,10,14,17,00,12.20
2020,10,14,17,01,16.50
2020,10,14,17,02,5.50
2020,10,14,17,03,8.60
2020,10,14,17,04,17.40
2020,10,14,17,05,13.70
2020,10,14,17,06,11.40
2020,10,14,17,07,9.70
2020,10,14,17,08,9.10
2020,10,14,17,09,7.00
2020,10,14,17,10,5.20
2020,10,14,17,11,10.00
2020,10,14,17,12,4.90
2020,10,14,17,13,8.00
2020,10,14,17,14,9.50
2020,10,14,17,15,5.80
2020,10,14,17,16,11.40
2020,10,14,17,17,5.80
2020,10,14,17,18,9.60
2020,10,14,17,19,6.90
2020,10,14,17,20,9.20
2020,10,14,17,21,4.30
2020,10,14,17,22,1.90
2020,10,14,17,23,6.30
2020,10,14,17,24,12.50
2020,10,14,17,25,11.20
2020,10,14,17,26,7.30
2020,10,14,17,27,6.00
2020,10,14,17,28,2.90
2020,10,14,17,29,4.70
2020,10,14,17,30,6.50
2020,10,14,17,31,3.80
2020,10,14,17,32,6.30
2020,10,14,17,33,14.90
2020,10,14,17,34,5.60
2020,10,14,17,35,10.10
2020,10,14,17,36,8.70
2020,10,14,17,37,4.20
2020,10,14,17,38,6.90
2020,10,14,17,39,10.80
2020,10,14,17,40,6.70
2020,10,14,17,41,5.70
2020,10,14,17,42,6.20
2020,10,14,17,43,6.40
2020,10,14,17,44,10.80
2020,10,14,17,45,8.00
2020,10,14,17,46,7.30
2020,10,14,17,47,7.10
2020,10,14,17,48,6.20
2020,10,14,17,49,5.50
2020,10,14,17,50,6.50
2020,10,14,17,51,7.70
2020,10,14,17,52,5.60
2020,10,14,17,53,2.30
2020,10,14,17,54,16.10
2020,10,14,17,55,2.80
2020,10,14,17,56,7.60
2020,10,14,17,57,9.10
2020,10,14,17,58,5.10